Location: Varese
(45.8000°N, 8.8330°E)
Time: 02:39:54
(UTC+02:00)

ISS - Pass Details

Date: 17 May 2021
Orbit: 417 x 422 km, 51.6° (Epoch: 14 June)

Event Time Altitude Azimuth Distance (km) Brightness Sun altitude
Rises 02:04:19 0° 296° (WNW) 2,370 0.3 -24.1°
Reaches altitude 10° 02:06:31 10° 304° (NW) 1,506 -0.7 -24.1°
Maximum altitude 02:09:43 39° 16° (NNE) 648 -2.4 -23.9°
Drops below altitude 10° 02:12:55 10° 87° (E) 1,505 -0.8 -23.8°
Sets 02:15:06 0° 95° (E) 2,368 0.2 -23.7°
